This is the latest recevied weather packets stored in our database for station/object KD4KKF. If no packets are shown the sender has not sent any weather packets the latest 10 day(s).
| Time | Temp. | Humidity | Pressure | Rain* | Wind** | Luminosity | Snow |
|---|---|---|---|---|---|---|---|
| 1777864058 | 10° C | 99% | 1017.4 hPa | 0 mm | - | 0 W/m² | - |
| 1777863756 | 10° C | 98% | 1017.5 hPa | 0 mm | - | 0 W/m² | - |
| 1777863452 | 10.56° C | 98% | 1017.7 hPa | 0 mm | - | 0 W/m² | - |
| 1777863149 | 10.56° C | 98% | 1017.4 hPa | 0 mm | - | 0 W/m² | - |
| 1777862846 | 10.56° C | 97% | 1017.8 hPa | 0 mm | - | 0 W/m² | - |
| 1777862543 | 11.11° C | 96% | 1017.5 hPa | 0 mm | - | 0 W/m² | - |
| 1777862240 | 10.56° C | 95% | 1017.7 hPa | 0 mm | - | 0 W/m² | - |
| 1777861936 | 11.11° C | 95% | 1017.7 hPa | 0 mm | - | 0 W/m² | - |
| 1777861632 | 11.11° C | 94% | 1017.8 hPa | 0 mm | - | 0 W/m² | - |
| 1777861328 | 11.11° C | 94% | 1017.8 hPa | 0 mm | - | 0 W/m² | - |
| 1777861026 | 11.11° C | 94% | 1017.6 hPa | 0 mm | - | 0 W/m² | - |
| 1777860722 | 11.11° C | 93% | 1017.4 hPa | 0 mm | - | 0 W/m² | - |
| 1777860419 | 11.67° C | 94% | 1017.7 hPa | 0 mm | - | 0 W/m² | - |
| 1777860115 | 11.67° C | 93% | 1017.5 hPa | 0 mm | - | 0 W/m² | - |
| 1777859812 | 11.67° C | 93% | 1017.2 hPa | 0 mm | - | 0 W/m² | - |
| 1777859508 | 12.22° C | 92% | 1017.2 hPa | 0 mm | - | 0 W/m² | - |
| 1777859204 | 12.22° C | 91% | 1016.9 hPa | 0 mm | - | 0 W/m² | - |
| 1777858902 | 12.22° C | 90% | 1017 hPa | 0 mm | - | 0 W/m² | - |
| 1777858599 | 12.22° C | 90% | 1016.9 hPa | 0 mm | - | 0 W/m² | - |
| 1777858296 | 12.22° C | 91% | 1016.9 hPa | 0 mm | - | 0 W/m² | - |
| 1777857993 | 12.78° C | 91% | 1016.8 hPa | 0 mm | - | 0 W/m² | - |
| 1777857691 | 12.78° C | 92% | 1016.9 hPa | 0 mm | - | 0 W/m² | - |
| 1777857388 | 12.78° C | 90% | 1016.9 hPa | 0 mm | - | 0 W/m² | - |
| 1777857084 | 13.33° C | 89% | 1016.8 hPa | 0 mm | - | 0 W/m² | - |
| 1777856780 | 13.33° C | 87% | 1016.6 hPa | 0 mm | - | 0 W/m² | - |
* Rain latest hour (hover to see other rain measurements)
** Current wind speed in m/s (hover to see current wind gust speed)